This is the latest recevied weather packets stored in our database for station/object IT9RID. If no packets are shown the sender has not sent any weather packets the latest 10 day(s).
| Time | Temp. | Humidity | Pressure | Rain* | Wind** | Luminosity | Snow |
|---|---|---|---|---|---|---|---|
| 1777654377 | 17.78° C | 49% | 1017.8 hPa | 0 mm | - | - | - |
| 1777653777 | 17.78° C | 49% | 1017.8 hPa | 0 mm | - | - | - |
| 1777653178 | 17.78° C | 51% | 1017.7 hPa | 0 mm | - | - | - |
| 1777652576 | 18.33° C | 52% | 1017.6 hPa | 0 mm | - | - | - |
| 1777651976 | 17.78° C | 53% | 1017.6 hPa | 0 mm | - | - | - |
| 1777651376 | 17.78° C | 53% | 1017.6 hPa | 0 mm | - | - | - |
| 1777650776 | 17.78° C | 53% | 1017.7 hPa | 0 mm | - | - | - |
| 1777650176 | 18.33° C | 52% | 1017.7 hPa | 0 mm | - | - | - |
| 1777649575 | 17.78° C | 52% | 1017.7 hPa | 0 mm | - | - | - |
| 1777648975 | 18.33° C | 51% | 1017.7 hPa | 0 mm | - | - | - |
| 1777648375 | 18.33° C | 52% | 1017.7 hPa | 0 mm | - | - | - |
| 1777647775 | 19.44° C | 53% | 1017.6 hPa | 0 mm | - | - | - |
| 1777647175 | 18.33° C | 55% | 1017.8 hPa | 0 mm | - | - | - |
| 1777646575 | 18.33° C | 54% | 1017.8 hPa | 0 mm | - | - | - |
| 1777645374 | 17.78° C | 54% | 1017.8 hPa | 0 mm | - | - | - |
| 1777644774 | 18.33° C | 56% | 1017.8 hPa | 0 mm | - | - | - |
| 1777644174 | 18.33° C | 58% | 1017.9 hPa | 0 mm | - | - | - |
| 1777643574 | 18.33° C | 58% | 1018 hPa | 0 mm | - | - | - |
| 1777642974 | 18.33° C | 57% | 1017.9 hPa | 0 mm | - | - | - |
| 1777642374 | 18.89° C | 56% | 1018 hPa | 0 mm | - | - | - |
| 1777641774 | 18.33° C | 56% | 1018.1 hPa | 0 mm | - | - | - |
| 1777641173 | 18.33° C | 58% | 1018.2 hPa | 0 mm | - | - | - |
| 1777640573 | 18.33° C | 59% | 1018.2 hPa | 0 mm | - | - | - |
| 1777639973 | 18.33° C | 60% | 1018.2 hPa | 0 mm | - | - | - |
| 1777639373 | 18.33° C | 60% | 1018.3 hPa | 0 mm | - | - | - |
* Rain latest hour (hover to see other rain measurements)
** Current wind speed in m/s (hover to see current wind gust speed)